SCP
0 0 0 0 0 0 0 0 0 0 0 0 0 0 0 0 0 0 0 0 0 0 0 0 0 0 0 0 0 0 0 0 0 0 0 0 0 0 0 0 0 0 0
0 0 0 0 0 0 0 0 0 0 0 0 0 0 0 0 0 0 0 0 0 0 0 0 0 0 0 0 0 0 0 0 0 0 0 0 0 0 0 0 0 0 0
0 0 0 0 0 0 0 0 0 0 0 0 0 0 0 0 0 0 0 0 0 0 0 0 0 0 0 0 0 0 0 0 0 0 0 0 0 0 0 0 0 0 0
0 0 0 0 0 0 0 0 0 0 0 0 0 0 0 0 0 0 0 0 0 0 0 0 0 0 0 0 0 0 0 0 0 0 0 0 0 0 0 0 0 0 0
0 0 0 0 0 0 0 0 0 0 0 0 0 0 0 0 0 0 0 0 0 0 0 0 0 0 0 0 0 0 0 0 0 0 0 0 0 0 0 0 0 0 0
0 0 0 0 0 0 0 0 0 0 0 0 0 0 0 0 0 0 0 0 0 0 0 0 0 0 0 0 0 0 0 0 0 0 0 0 0 0 0 0 0 0 0
0 0 0 0 0 0 0 0 0 0 0 0 0 0 0 0 0 0 0 0 0 0 0 0 0 0 0 0 0 0 0 0 0 0 0 0 0 0 0 0 0 0 0
0 0 0 0 0 0 0 0 0 0 0 0 0 0 0 0 0 0 0 0 0 0 0 0 0 0 0 0 0 0 0 0 0 0 0 0 0 0 0 0 0 0 0
0 0 0 0 0 0 0 0 0 0 0 0 0 0 0 0 0 0 0 0 0 0 0 0 0 0 0 0 0 0 0 0 0 0 0 0 0 0 0 0 0 0 0
0 0 0 0 0 0 0 0 0 0 0 0 0 0 0 0 0 0 0 0 0 0 0 0 0 0 0 0 0 0 0 0 0 0 0 0 0 0 0 0 0 0 0
0 0 0 0 0 0 0 0 0 0 0 0 0 0 0 0 0 0 0 0 0 0 0 0 0 0 0 0 0 0 0 0 0 0 0 0 0 0 0 0 0 0 0
0 0 0 0 0 0 0 0 0 0 0 0 0 0 0 0 0 0 0 0 0 0 0 0 0 0 0 0 0 0 0 0 0 0 0 0 0 0 0 0 0 0 0
0 0 0 0 0 0 0 0 0 0 0 0 0 0 0 0 0 0 0 0 0 0 0 0 0 0 0 0 0 0 0 0 0 0 0 0 0 0 0 0 0 0 0
0 0 0 0 0 0 0 0 0 0 0 0 0 0 0 0 0 0 0 0 0 0 0 0 0 0 0 0 0 0 0 0 0 0 0 0 0 0 0 0 0 0 0
0 0 0 0 0 0 0 0 0 0 -0 0 0 0 0 0 0 0 0 0 0 0 0 0 0 0 0 0 0 0 0 0 0 0 0 0 0 0 0 0 0 0 0
0 0 0 0 0 0 0 0 0 0 0 0 0 0 0 0 0 0 0 0 0 0 0 0 0 0 0 0 0 0 0 0 0 0 0 0 0 0 0 0 0 0 0
0 0 0 0 0 0 0 0 0 0 0 0 0 0 0 0 0 0 0 0 0 0 0 0 0 0 0 0 0 0 0 0 0 0 0 0 0 0 0 0 0 0 0
0 0 0 0 0 0 0 0 0 0 0 0 0 0 0 0 0 0 0 0 0 0 0 0 0 0 0 0 0 0 0 0 0 0 0 0 0 0 0 0 0 0 0
0 0 0 0 0 0 0 0 0 0 0 0 0 0 0 0 0 0 0 0 0 0 0 0 0 0 0 0 0 0 0 0 0 0 0 0 0 0 0 0 0 0 0
0 0 0 0 0 0 0 0 0 0 0 0 0 0 0 0 0 0 0 0 0 0 0 0 0 0 0 0 0 0 0 0 0 0 0 0 0 0 0 0 0 0 0
0 0 0 0 0 0 0 0 0 0 0 0 0 0 0 0 0 0 0 0 0 0 0 0 0 0 0 0 0 0 0 0 0 0 0 0 0 0 0 0 0 0 0
0 0 0 0 0 0 0 0 0 0 0 0 0 0 0 0 0 0 0 0 0 0 0 0 0 0 0 0 0 0 0 0 0 0 0 0 0 0 0 0 0 0 0
0 0 0 0 0 0 0 0 0 0 0 0 0 0 0 0 0 0 0 0 0 0 0 0 0 0 0 0 0 0 0 0 0 0 0 0 0 0 0 0 0 0 0
0 0 0 0 0 0 0 0 0 0 0 0 0 0 0 0 0 0 0 0 0 0 0 0 0 0 0 0 0 0 0 0 0 0 0 0 0 0 0 0 0 0 0
0 0 0 0 0 0 0 0 0 0 0 0 0 0 0 0 0 0 0 0 0 0 0 0 0 0 0 0 0 0 0 0 0 0 0 0 0 0 0 0 0 0 0
0 0 0 0 0 0 0 0 0 0 0 0 0 0 0 0 0 0 0 0 0 0 0 0 0 0 0 0 0 0 0 0 0 0 0 0 0 0 0 0 0 0 0
Wind_Speed
2 2 2 2 2 1 1 1 2 3 4 5 5 5 5 5 4 4 4 8 8 9 9 9 9 9 9 8 8 8 7 6 4 3 2 2 3 3 3 3 3 3 4
3 2 2 2 2 2 2 2 3 3 3 4 4 4 4 4 4 4 4 5 9 9 9 10 10 10 10 9 9 8 8 7 5 3 2 2 4 4 4 4 4 4 3
3 3 2 2 2 2 3 3 4 3 3 3 4 4 4 4 3 4 4 4 4 8 10 10 10 11 11 10 10 9 9 8 7 5 5 5 6 5 5 5 4 4 4
5 4 3 2 2 3 3 2 3 3 3 3 3 3 3 3 4 4 4 4 3 4 7 10 11 11 11 11 11 10 9 9 8 8 8 8 7 6 5 5 5 4 4
5 4 3 2 3 3 3 3 3 3 3 3 2 2 3 3 3 4 4 5 4 4 4 6 9 10 11 12 12 11 10 10 9 8 9 8 8 6 6 5 5 4 4
5 4 2 4 4 4 4 4 4 3 2 2 2 3 2 2 3 4 4 4 4 4 4 5 4 6 11 12 12 12 11 11 10 9 8 8 8 7 6 5 5 4 4
5 4 3 4 4 4 4 4 3 3 2 2 2 2 2 3 3 3 3 3 4 5 4 5 3 3 4 10 12 13 13 12 11 10 9 8 7 7 6 6 5 5 5
5 4 4 3 4 3 4 4 4 3 2 3 2 1 2 3 3 3 3 3 4 4 4 6 5 5 4 3 7 12 13 12 11 10 10 9 8 8 7 6 6 6 5
4 4 4 4 3 3 3 4 4 4 3 3 3 2 2 1 1 2 3 4 4 4 4 4 6 6 6 4 4 8 12 12 11 10 9 9 8 8 8 8 7 6 6
3 4 4 4 4 3 3 3 4 3 3 3 3 3 3 2 1 1 2 3 4 4 4 5 5 5 5 4 5 8 10 10 11 11 10 9 9 9 9 8 8 8 7
3 3 3 3 4 3 3 4 4 4 3 3 2 2 3 3 3 2 1 2 2 2 3 3 3 4 4 4 4 7 9 9 10 10 10 10 10 9 8 8 8 8 8
2 2 2 3 3 3 3 3 3 4 3 3 3 3 3 2 2 2 1 1 1 1 2 2 3 3 3 4 6 8 8 8 9 10 11 11 11 10 9 9 9 8 8
2 1 2 3 3 3 3 3 3 3 3 4 4 3 3 2 2 2 2 1 1 0 2 2 2 3 3 3 3 6 7 7 8 9 9 10 10 10 10 10 10 9 9
2 2 3 4 3 3 4 3 3 3 3 4 4 3 3 3 3 3 2 2 2 2 2 2 2 3 2 2 3 4 3 6 6 7 8 8 9 9 10 10 9 9 9
2 2 3 3 3 3 4 4 3 3 3 4 3 4 3 3 3 3 3 2 2 2 2 2 2 2 2 2 2 2 2 4 5 5 6 6 7 8 9 9 10 10 9
3 2 3 3 3 3 3 3 3 2 3 2 3 4 3 3 3 3 3 3 3 2 1 2 2 2 3 4 4 3 2 4 4 4 4 4 5 5 7 8 9 9 9
3 2 3 3 3 3 3 3 3 3 3 3 3 4 3 4 3 3 3 3 3 3 2 2 2 2 4 3 3 2 1 1 1 2 2 1 2 3 4 6 7 8 8
3 3 3 3 3 3 3 3 3 2 3 3 3 3 3 3 4 3 3 3 3 2 2 2 2 3 3 3 3 3 3 3 1 1 1 2 1 1 1 3 4 5 7
3 3 3 3 3 3 3 3 2 2 3 3 4 4 4 4 4 3 4 3 3 3 2 1 2 2 2 3 3 4 5 3 3 2 2 3 2 2 2 3 3 4 5
3 3 4 3 3 3 3 3 2 2 3 4 4 4 4 5 4 4 4 4 3 3 3 2 2 2 2 3 3 3 4 4 4 4 4 4 4 4 4 3 3 3 4
3 4 4 4 3 3 3 3 2 2 3 3 4 4 5 6 7 5 4 3 3 3 2 2 2 2 3 3 3 3 4 4 4 3 3 3 3 2 3 4 4 4 3
3 3 4 4 4 3 4 5 4 2 2 3 3 3 4 5 6 7 7 6 5 3 2 2 2 2 3 3 3 4 3 4 4 4 3 4 3 3 3 2 3 4 5
3 3 4 4 4 3 4 4 5 3 3 3 3 2 3 4 4 3 4 4 4 5 3 1 2 2 2 3 3 4 4 4 4 4 3 4 3 3 4 4 6 7 8
3 3 3 4 4 3 4 3 3 2 2 3 3 3 3 3 3 3 2 3 2 2 2 1 1 2 2 3 3 3 4 4 4 3 3 4 4 4 5 4 8 9 9
3 4 4 3 4 3 3 3 2 1 2 2 2 3 3 3 5 6 3 2 2 3 3 3 4 4 5 7 5 3 4 3 4 4 3 3 4 5 4 4 5 8 8
4 4 4 3 3 3 4 3 2 1 1 1 1 2 4 4 5 5 2 2 3 3 3 4 4 5 4 5 6 3 2 2 3 4 3 3 4 4 5 4 3 4 5
Wind_Direction
67 58 61 25 18 16 22 3 30 39 33 37 43 53 62 66 76 81 85 82 79 71 65 58 58 56 53 52 49 45 39 38 38 49 75 112 113 100 100 95 92 88 86
69 48 55 44 25 7 11 30 47 38 51 50 44 44 57 62 74 92 102 87 78 73 67 59 58 55 53 51 49 45 38 36 37 44 68 117 106 100 98 92 84 80 76
62 57 39 38 23 15 29 36 35 31 55 56 54 51 49 47 57 75 90 98 88 73 70 64 60 56 53 50 49 47 42 39 42 47 74 98 98 93 89 86 80 73 64
65 47 30 25 33 28 30 44 40 32 42 44 52 54 58 45 45 57 65 79 92 89 75 70 64 59 54 49 46 44 44 45 50 58 74 84 87 89 85 83 81 73 62
58 57 28 17 40 33 23 38 49 36 44 37 54 70 67 60 47 53 59 64 71 92 95 80 70 61 55 49 45 42 44 45 50 62 73 74 76 78 77 76 73 69 65
46 51 47 37 41 35 23 35 39 35 41 15 45 64 74 81 62 50 51 55 52 67 87 94 78 61 55 48 43 41 44 43 46 57 67 71 68 66 63 64 64 62 61
29 51 45 44 44 42 31 36 36 27 20 39 47 38 45 61 71 65 54 47 51 50 60 81 77 72 59 50 43 42 41 43 47 53 58 60 60 58 55 55 55 55 56
25 42 51 54 52 46 31 33 38 23 10 30 57 58 48 20 16 67 70 64 53 44 48 60 60 59 64 57 42 43 39 38 45 50 51 51 51 50 48 46 45 44 45
39 28 39 52 52 57 41 37 35 35 18 1 32 61 81 68 347 23 58 63 57 44 44 52 56 50 58 58 46 38 38 32 36 43 45 44 43 43 42 38 35 31 28
60 37 37 47 54 59 56 40 42 34 35 10 7 26 54 89 94 44 17 50 61 57 50 51 56 53 55 58 53 44 38 34 33 35 38 40 40 41 40 37 33 30 25
70 56 36 44 54 56 57 56 50 41 41 29 24 18 18 23 28 89 61 22 39 47 66 62 63 58 54 58 59 45 42 37 35 32 32 31 32 33 34 34 30 26 24
71 69 55 56 59 54 56 53 54 51 45 39 34 39 38 33 12 46 62 54 72 29 60 60 66 63 58 59 57 50 44 43 39 35 34 30 27 24 23 23 21 18 17
74 66 66 63 59 52 60 54 50 49 46 42 43 36 32 30 31 44 49 17 40 52 58 47 56 66 55 68 63 45 47 52 44 39 37 33 29 25 22 20 19 15 14
91 69 73 72 63 55 62 57 55 42 47 45 41 38 33 20 27 41 55 45 21 16 44 38 30 53 47 61 58 50 54 54 49 43 40 36 31 26 22 21 17 12 12
100 90 91 87 71 61 59 57 59 46 47 40 35 41 40 25 25 23 28 52 75 39 7 17 17 17 34 57 56 42 51 52 49 47 44 38 34 29 24 21 18 15 13
102 100 90 90 75 69 74 60 58 40 55 53 52 49 38 30 26 25 22 25 50 74 34 354 8 6 22 31 39 34 34 29 53 55 46 40 37 31 24 22 18 13 10
115 112 104 101 89 75 74 71 66 52 49 45 49 56 41 39 33 27 20 22 34 58 66 344 357 8 26 16 6 356 353 22 45 54 41 22 22 24 21 16 10 6 2
130 120 112 109 105 91 77 70 68 55 59 53 48 54 50 48 35 28 25 23 23 34 74 17 343 357 5 358 358 348 353 4 347 18 352 346 320 308 353 355 354 353 352
130 118 112 101 88 79 72 64 68 47 57 60 54 50 47 50 39 25 29 24 12 18 34 45 348 355 355 358 2 347 352 346 336 342 334 325 307 310 300 321 327 334 340
125 123 112 102 95 78 61 48 44 51 62 63 66 65 58 53 45 27 31 19 18 17 16 30 9 353 350 349 10 350 342 339 336 340 342 327 308 300 295 297 309 317 328
107 108 105 97 84 75 49 41 31 51 73 79 78 80 77 73 63 53 44 23 20 20 15 21 6 359 355 357 348 335 338 325 322 335 335 324 322 312 301 293 292 296 307
110 111 111 103 90 79 54 47 41 28 52 74 90 96 96 81 68 55 48 41 28 28 19 15 7 359 341 343 336 338 332 334 321 322 333 315 327 323 309 297 288 294 302
116 108 107 108 103 86 66 50 42 46 55 52 57 69 63 65 64 51 28 18 11 17 26 37 21 343 334 334 338 331 322 315 296 298 326 309 320 317 309 315 313 306 307
121 116 107 110 114 105 88 73 53 58 74 67 54 56 72 61 45 47 30 15 360 358 356 10 347 308 322 318 315 308 299 304 298 313 335 310 314 309 311 306 307 310 307
128 127 120 119 117 110 100 84 61 60 91 83 67 51 63 67 37 36 34 4 347 333 341 341 322 312 321 329 332 341 336 335 317 309 331 318 309 308 299 293 304 304 301
140 134 133 139 139 136 135 123 108 89 103 105 91 75 68 72 46 35 34 360 337 323 339 335 323 321 321 325 330 322 309 318 314 309 322 324 313 321 309 292 300 304 298